Temp
20 21 21 21 17 16 19 22 22 21 23 24 25 24 23 22 22 21 22 22 22 21 20 20 20 21 21 20 20 20 20 20 19 19 19 19 18 18 18 18 18 18 18 18 18 18 18 18 18
20 21 21 21 15 18 20 20 21 22 24 25 25 24 23 22 22 22 22 22 21 21 21 20 21 21 20 20 20 20 20 19 19 19 19 18 18 18 18 17 18 18 18 18 18 18 18 18 18
20 20 20 14 13 18 20 22 21 23 24 25 23 23 23 21 22 22 22 22 21 21 20 20 20 20 20 20 20 20 20 19 19 19 18 18 18 18 18 18 18 18 18 18 18 18 18 18 18
19 20 19 15 19 19 21 19 22 22 23 24 23 21 22 20 22 23 23 22 21 21 20 20 20 20 20 20 20 20 19 19 19 19 18 18 18 18 18 18 18 18 18 18 17 17 17 17 17
20 19 14 17 19 20 20 19 23 21 21 21 22 20 21 21 22 23 22 21 22 21 20 20 20 20 20 19 19 19 19 19 19 19 18 18 18 18 18 18 18 18 18 17 17 17 17 16 16
18 18 16 17 18 19 18 20 21 20 21 21 21 20 19 19 20 21 22 22 21 20 20 20 20 19 19 19 19 19 19 19 19 18 18 18 18 18 18 18 18 18 18 17 17 17 17 16 16
15 13 15 18 19 18 17 20 19 19 19 19 21 19 19 20 21 21 21 21 20 20 20 20 20 19 19 19 18 18 18 18 18 18 18 18 18 18 18 18 18 18 18 18 17 17 17 16 16
19 13 16 18 19 17 18 19 19 19 19 20 20 18 18 19 20 21 21 21 20 20 20 19 19 19 19 18 18 18 18 18 18 18 18 18 18 18 18 18 17 18 18 18 17 17 17 17 16
18 13 14 17 17 17 17 19 19 19 19 17 16 15 17 17 19 20 20 20 20 20 20 20 19 19 19 19 18 18 17 17 17 17 18 17 17 18 17 18 18 18 17 17 17 17 17 17 16
15 14 16 16 16 16 16 16 17 16 15 14 16 16 17 18 17 17 17 17 18 19 20 20 20 20 19 19 18 18 17 17 17 17 17 17 17 17 17 17 17 18 18 17 17 17 17 17 17
15 14 15 16 17 18 16 13 13 15 12 10 9 11 15 17 17 17 17 17 17 17 18 18 19 20 20 19 19 18 18 17 17 17 17 17 17 17 17 17 17 18 18 18 17 17 17 18 18
15 16 17 17 17 16 14 12 10 10 10 9 10 11 14 15 14 15 16 17 17 16 15 15 17 18 19 19 19 19 18 18 17 17 17 17 17 17 17 17 17 17 18 18 18 18 18 18 18
15 15 17 15 13 12 12 11 10 9 9 10 12 14 11 11 12 13 14 15 16 17 17 17 16 17 18 18 19 19 19 19 18 18 17 17 17 17 17 18 18 18 18 18 18 18 18 18 18
16 16 15 15 12 11 9 9 10 8 8 10 13 10 8 10 10 12 14 14 15 16 16 16 17 14 16 17 18 18 19 19 19 18 18 17 17 17 17 17 18 18 18 18 18 18 18 18 18
16 14 13 13 14 12 13 8 7 7 7 8 7 8 10 9 10 9 10 11 12 14 15 16 16 15 14 15 16 17 18 19 19 19 18 18 17 17 17 17 17 18 18 18 18 17 17 17 17
14 12 11 12 10 11 12 7 7 6 6 5 6 6 7 9 9 9 10 10 11 12 14 16 16 17 16 15 15 16 17 17 19 19 19 18 18 17 17 17 17 18 17 17 17 18 17 17 17
10 10 11 12 9 10 9 7 6 5 5 4 5 5 7 7 9 9 9 10 11 11 13 14 16 17 17 16 16 15 15 16 17 18 18 18 18 18 18 18 18 17 17 16 16 17 18 18 18
11 9 8 9 8 7 5 4 5 5 5 4 4 5 5 6 7 8 8 9 9 10 12 13 13 15 16 16 15 15 14 15 15 17 18 19 18 18 18 17 18 18 17 16 16 16 16 17 18
10 9 8 7 8 6 5 4 4 5 4 4 5 5 5 6 6 7 8 8 9 9 10 12 12 13 15 16 15 14 14 14 15 15 16 17 18 18 18 17 17 17 17 17 16 16 16 16 16
11 10 9 7 8 6 5 4 4 5 4 4 5 5 6 6 6 6 6 7 7 8 9 10 11 11 13 14 15 15 14 14 14 15 15 16 16 17 17 17 17 17 17 16 16 15 15 16 16
10 10 11 9 7 6 6 5 4 5 5 5 5 5 6 5 5 6 6 6 6 7 7 8 9 10 11 12 13 14 14 14 14 14 14 15 15 16 16 17 17 17 16 16 16 16 15 15 15
10 11 11 10 8 7 8 7 5 4 4 5 5 5 6 5 5 6 6 5 6 6 6 6 7 8 9 10 11 11 12 12 13 12 14 14 13 14 14 14 15 16 17 16 16 16 16 16 15
11 12 11 11 8 7 9 5 4 3 4 4 5 5 6 5 5 5 5 5 5 5 6 6 6 6 6 7 8 9 10 10 10 11 12 13 13 13 13 14 14 14 14 15 16 16 16 16 16
11 10 8 7 7 5 9 7 1 2 3 4 5 5 5 5 6 6 6 6 6 5 5 5 6 5 5 5 6 7 7 8 10 10 11 10 10 8 11 13 14 13 14 14 14 14 14 14 16
8 8 5 6 4 5 8 6 3 3 4 4 5 5 6 6 6 6 6 6 6 5 5 5 5 5 5 4 5 5 5 6 7 8 8 8 9 10 8 7 10 11 12 12 13 13 13 13 13
9 8 6 9 6 7 8 4 4 4 6 6 6 6 6 7 7 6 6 5 5 5 5 4 4 4 5 5 4 4 4 4 4 6 7 7 7 7 7 6 7 9 10 9 11 11 12 13 11
9 5 8 7 6 6 5 2 4 5 5 6 6 6 8 8 7 7 6 6 5 4 4 4 4 4 4 4 4 4 3 3 3 4 5 5 6 6 5 6 4 8 9 9 9 10 10 12 12
10 8 6 3 3 5 6 5 3 4 4 5 6 7 8 8 8 7 7 6 5 4 4 4 3 4 3 3 3 3 3 2 3 3 4 4 4 5 5 6 6 7 6 7 8 7 8 10 11
7 6 4 4 4 4 2 3 4 5 5 5 7 8 8 8 8 8 7 6 5 5 4 3 3 4 3 3 3 2 2 2 2 3 3 3 4 4 5 4 4 4 4 5 5 6 6 7 8
7 6 5 -0 0 -1 -1 0 7 5 7 8 9 9 8 8 8 7 7 6 5 5 4 3 3 3 3 2 2 2 2 2 2 2 2 3 3 4 4 4 4 4 4 5 5 5 5 5 5
Height
1506 1505 1504 1504 1516 1516 1521 1512 1500 1499 1492 1488 1489 1495 1500 1500 1498 1508 1498 1502 1506 1509 1513 1516 1519 1522 1523 1524 1526 1528 1530 1532 1533 1534 1536 1537 1539 1542 1544 1545 1546 1547 1548 1549 1550 1551 1552 1553 1554
1506 1506 1506 1504 1526 1529 1521 1508 1503 1494 1490 1490 1491 1498 1499 1501 1499 1498 1501 1504 1508 1510 1514 1518 1521 1524 1526 1527 1528 1529 1531 1534 1535 1537 1538 1540 1541 1543 1545 1547 1548 1549 1550 1551 1552 1553 1554 1555 1556
1507 1507 1508 1514 1532 1528 1520 1506 1503 1496 1491 1490 1495 1499 1499 1505 1503 1503 1504 1505 1510 1514 1517 1520 1524 1526 1529 1530 1531 1532 1533 1535 1538 1539 1541 1542 1544 1545 1547 1549 1550 1551 1552 1553 1554 1555 1556 1557 1558
1508 1508 1513 1524 1525 1515 1513 1509 1502 1496 1494 1492 1496 1501 1507 1507 1506 1506 1507 1510 1513 1517 1520 1522 1526 1529 1532 1534 1535 1536 1536 1537 1539 1541 1543 1544 1546 1547 1548 1550 1552 1553 1554 1555 1556 1557 1558 1559 1560
1508 1509 1525 1527 1521 1514 1511 1508 1503 1502 1499 1500 1498 1509 1510 1510 1510 1511 1513 1516 1518 1520 1523 1526 1529 1532 1534 1536 1538 1539 1539 1540 1541 1542 1544 1546 1547 1549 1550 1551 1552 1554 1556 1557 1558 1559 1559 1561 1562
1509 1512 1529 1532 1522 1516 1513 1512 1510 1507 1506 1504 1505 1509 1517 1518 1517 1517 1519 1520 1522 1524 1526 1528 1531 1534 1536 1539 1540 1542 1542 1543 1544 1544 1546 1547 1548 1549 1551 1552 1553 1555 1556 1558 1559 1560 1561 1562 1563
1508 1518 1529 1518 1519 1522 1523 1516 1515 1514 1511 1514 1516 1516 1522 1520 1521 1521 1522 1523 1525 1527 1529 1530 1532 1535 1538 1540 1542 1544 1544 1546 1546 1547 1547 1548 1549 1550 1551 1552 1554 1555 1557 1558 1559 1561 1562 1564 1564
1507 1515 1526 1521 1521 1533 1526 1521 1521 1516 1521 1522 1518 1527 1526 1524 1525 1526 1526 1527 1527 1530 1531 1533 1533 1535 1538 1540 1542 1544 1545 1547 1547 1548 1548 1548 1549 1550 1551 1553 1554 1555 1556 1558 1559 1561 1562 1563 1564
1507 1522 1531 1524 1525 1533 1526 1523 1523 1524 1522 1526 1532 1532 1534 1530 1529 1530 1530 1531 1531 1531 1532 1534 1535 1537 1538 1540 1541 1543 1544 1546 1547 1547 1547 1548 1549 1550 1551 1552 1553 1555 1556 1557 1558 1559 1561 1563 1564
1508 1521 1523 1519 1522 1529 1530 1525 1525 1526 1525 1529 1530 1533 1532 1529 1528 1533 1534 1535 1534 1533 1533 1533 1534 1535 1536 1538 1539 1541 1541 1543 1545 1545 1546 1546 1547 1548 1549 1551 1552 1553 1554 1556 1557 1558 1559 1560 1562
1511 1519 1520 1520 1518 1523 1529 1530 1530 1529 1543 1550 1547 1540 1537 1532 1532 1532 1536 1535 1532 1534 1535 1534 1535 1534 1534 1535 1537 1538 1540 1541 1542 1543 1544 1544 1545 1545 1547 1548 1549 1550 1552 1553 1554 1555 1556 1558 1559
1515 1516 1517 1519 1520 1523 1529 1539 1541 1546 1557 1555 1549 1546 1539 1535 1535 1536 1536 1535 1533 1531 1528 1531 1533 1533 1534 1534 1534 1535 1537 1538 1540 1541 1543 1543 1543 1543 1544 1545 1547 1548 1550 1551 1552 1553 1555 1556 1557
1513 1517 1519 1522 1523 1528 1528 1541 1548 1554 1556 1554 1548 1541 1542 1542 1541 1540 1539 1537 1534 1531 1530 1529 1528 1531 1532 1532 1532 1532 1533 1534 1537 1539 1540 1541 1541 1542 1543 1544 1545 1546 1547 1548 1549 1551 1552 1552 1553
1512 1516 1520 1527 1528 1532 1533 1545 1543 1557 1559 1550 1545 1545 1545 1543 1542 1540 1536 1535 1533 1532 1529 1527 1526 1526 1529 1529 1530 1530 1531 1532 1533 1535 1536 1538 1539 1541 1541 1542 1543 1544 1545 1546 1547 1548 1549 1550 1550
1513 1520 1524 1531 1530 1532 1534 1550 1563 1563 1558 1550 1550 1549 1546 1544 1542 1539 1539 1536 1535 1533 1531 1527 1525 1523 1523 1524 1526 1528 1528 1529 1530 1531 1532 1534 1535 1537 1539 1539 1540 1542 1543 1543 1544 1545 1545 1546 1547
1517 1524 1535 1534 1531 1535 1534 1572 1568 1563 1558 1553 1552 1551 1550 1547 1543 1542 1540 1538 1536 1533 1531 1529 1525 1523 1522 1521 1521 1524 1525 1526 1527 1527 1529 1530 1532 1533 1535 1536 1537 1539 1540 1540 1540 1541 1542 1542 1543
1526 1537 1534 1535 1535 1533 1536 1564 1567 1564 1558 1554 1554 1553 1551 1549 1546 1543 1541 1538 1534 1531 1528 1527 1524 1521 1519 1518 1517 1518 1520 1523 1524 1525 1526 1527 1528 1529 1530 1531 1533 1535 1536 1536 1537 1537 1537 1538 1539
1528 1537 1541 1545 1551 1545 1556 1569 1570 1567 1561 1559 1558 1555 1553 1551 1549 1547 1543 1539 1536 1533 1529 1525 1523 1520 1517 1514 1513 1514 1515 1517 1520 1521 1521 1522 1523 1524 1526 1527 1528 1530 1532 1532 1533 1533 1534 1533 1535
1524 1532 1543 1552 1551 1555 1567 1570 1569 1567 1563 1560 1558 1556 1554 1553 1553 1550 1546 1541 1537 1534 1530 1525 1522 1518 1515 1513 1511 1512 1511 1513 1514 1516 1519 1520 1520 1521 1521 1522 1523 1524 1525 1527 1529 1531 1531 1531 1532
1527 1535 1547 1554 1554 1556 1568 1572 1570 1568 1568 1566 1563 1560 1558 1556 1553 1550 1547 1543 1538 1535 1532 1527 1523 1519 1515 1512 1510 1507 1509 1510 1510 1512 1514 1516 1517 1517 1517 1517 1517 1517 1519 1521 1524 1526 1527 1527 1529
1535 1538 1539 1548 1556 1559 1561 1570 1572 1569 1568 1568 1566 1564 1561 1558 1554 1551 1548 1544 1542 1538 1533 1528 1524 1520 1516 1512 1509 1506 1504 1506 1505 1505 1507 1509 1511 1512 1512 1512 1512 1512 1513 1514 1517 1520 1523 1524 1525
1539 1534 1537 1543 1551 1563 1559 1572 1573 1570 1569 1568 1566 1565 1563 1561 1557 1554 1550 1548 1546 1543 1539 1533 1527 1522 1517 1512 1508 1505 1503 1500 1501 1501 1501 1502 1501 1504 1504 1504 1506 1507 1506 1508 1510 1513 1515 1517 1516
1537 1535 1538 1542 1551 1558 1559 1576 1576 1572 1568 1566 1564 1564 1563 1562 1558 1555 1551 1549 1549 1546 1542 1538 1532 1526 1521 1515 1509 1505 1504 1502 1499 1495 1496 1496 1493 1497 1495 1494 1495 1497 1498 1500 1503 1504 1506 1508 1510
1533 1539 1545 1549 1555 1579 1555 1562 1588 1577 1572 1566 1564 1563 1562 1561 1559 1556 1553 1552 1550 1547 1543 1540 1535 1530 1525 1519 1513 1506 1502 1501 1498 1496 1492 1497 1487 1490 1483 1484 1486 1487 1489 1491 1493 1495 1498 1501 1500
1538 1546 1569 1569 1583 1576 1556 1567 1573 1566 1564 1564 1562 1561 1559 1559 1558 1557 1555 1552 1550 1547 1544 1540 1537 1533 1528 1523 1517 1512 1506 1502 1498 1496 1495 1491 1485 1479 1470 1477 1478 1481 1479 1483 1484 1486 1487 1490 1490
1540 1545 1558 1553 1568 1561 1558 1574 1565 1559 1560 1560 1560 1559 1558 1557 1557 1556 1555 1553 1551 1548 1545 1542 1538 1535 1529 1525 1522 1517 1512 1507 1502 1496 1494 1492 1491 1490 1485 1478 1479 1478 1475 1478 1468 1480 1480 1484 1482
1539 1555 1547 1556 1563 1566 1568 1572 1560 1557 1557 1556 1555 1556 1554 1555 1555 1555 1554 1553 1552 1549 1547 1543 1539 1535 1531 1528 1523 1519 1515 1510 1506 1500 1496 1494 1491 1487 1489 1479 1488 1476 1477 1470 1474 1468 1471 1473 1473
1536 1543 1559 1567 1587 1576 1564 1565 1566 1557 1554 1553 1552 1551 1552 1552 1553 1553 1553 1553 1551 1549 1547 1544 1541 1537 1533 1529 1525 1521 1517 1513 1508 1505 1500 1497 1496 1494 1485 1475 1477 1474 1477 1476 1476 1469 1470 1464 1459
1543 1548 1556 1559 1565 1573 1587 1571 1546 1546 1547 1549 1548 1548 1549 1550 1551 1551 1551 1551 1550 1548 1546 1544 1541 1537 1533 1530 1526 1522 1517 1513 1509 1503 1499 1496 1494 1493 1490 1489 1487 1486 1475 1468 1465 1465 1469 1467 1463
1534 1541 1548 1578 1583 1582 1589 1577 1536 1539 1541 1543 1544 1546 1547 1548 1549 1550 1549 1549 1548 1547 1545 1543 1540 1537 1534 1531 1527 1523 1518 1512 1506 1502 1498 1494 1495 1493 1487 1484 1480 1477 1473 1470 1466 1463 1466 1467 1459
Wind_Speed
10 8 8 4 4 4 3 3 2 6 2 4 15 5 2 3 2 3 12 25 23 30 28 23 20 21 21 22 22 21 20 19 19 18 20 20 20 20 18 17 17 18 17 17 17 17 17 18 17
7 6 2 3 4 3 3 4 8 6 8 22 18 7 3 3 7 11 21 18 27 29 29 24 21 20 20 21 21 21 20 19 18 19 20 21 20 18 16 16 16 18 18 18 18 18 18 18 17
6 6 2 4 2 2 2 2 6 8 2 4 6 7 6 8 7 13 15 19 30 29 29 25 22 20 19 19 20 20 21 20 19 20 21 21 20 18 17 17 17 17 18 19 19 19 18 18 18
5 2 5 4 1 4 2 8 8 8 9 11 8 7 6 12 1 2 16 19 27 28 28 26 22 20 18 18 18 19 20 20 20 21 21 20 19 17 19 17 17 17 18 18 19 19 19 19 18
1 5 4 2 2 4 4 14 16 4 6 9 4 6 7 18 15 11 14 22 22 26 27 25 21 19 18 17 17 17 18 19 20 21 21 19 18 17 17 17 17 17 17 18 19 20 20 19 17
4 3 4 2 5 5 6 23 17 13 11 15 13 7 9 9 13 14 14 10 19 23 25 24 21 19 17 16 15 15 15 16 18 19 19 19 18 17 16 16 16 17 17 18 18 19 20 19 17
5 4 4 4 4 6 7 14 14 12 22 17 11 5 10 6 7 10 10 10 14 18 21 22 21 19 17 16 15 14 14 14 15 17 18 18 17 16 15 15 16 16 17 18 18 19 19 19 17
5 4 4 2 4 3 10 6 14 20 17 33 17 8 7 7 7 7 8 8 9 13 16 19 20 20 19 17 16 15 13 13 13 14 15 16 16 16 15 14 15 16 17 18 18 18 19 19 19
4 4 3 3 5 3 13 4 12 23 26 33 29 34 23 10 4 7 6 7 8 7 9 15 18 20 20 20 19 18 17 15 14 15 15 16 16 16 16 15 15 16 16 18 18 19 19 20 21
4 4 2 1 6 7 23 25 9 19 34 25 35 32 30 37 29 16 11 5 5 9 8 9 13 20 22 23 22 21 20 20 19 17 17 16 16 16 16 16 16 16 18 19 19 20 20 21 24
3 5 5 6 16 16 18 37 23 8 14 21 23 32 33 28 27 23 20 22 12 9 13 16 15 18 23 26 26 26 25 23 22 21 20 18 18 18 18 18 18 18 19 20 21 22 22 21 24
6 8 8 6 10 13 12 29 37 32 14 18 29 33 33 33 32 27 22 18 16 10 4 18 20 20 22 26 28 29 29 28 27 25 23 22 21 21 20 20 19 19 20 20 21 22 21 21 22
11 7 20 28 32 30 37 25 20 27 20 23 28 33 35 33 31 27 23 19 16 12 13 13 20 23 23 27 29 30 32 32 30 28 27 26 25 24 22 22 21 20 20 21 22 22 22 23 24
9 17 17 20 22 23 25 15 10 23 17 27 28 31 31 31 31 28 27 26 20 16 18 14 14 21 26 26 29 33 32 32 32 31 30 29 28 26 25 24 24 23 23 22 22 23 23 24 25
17 13 8 6 6 3 2 17 12 20 16 29 31 28 27 30 29 31 29 27 24 18 18 18 13 19 27 30 29 32 33 33 34 34 33 32 31 30 29 27 27 25 24 23 23 24 25 26 26
6 5 5 5 14 11 8 3 12 18 20 27 30 31 30 28 29 28 27 27 24 21 17 16 17 14 21 30 31 31 33 34 34 35 35 34 34 33 32 31 30 27 26 25 25 26 27 29 30
6 5 8 4 19 3 8 3 11 19 20 27 29 30 30 31 30 30 29 27 26 23 21 17 15 18 18 25 33 33 35 35 35 33 34 35 35 35 34 34 33 31 29 28 28 26 28 30 31
5 7 6 6 3 18 17 8 5 13 23 24 25 27 29 30 30 30 30 31 27 22 19 19 17 13 18 21 28 34 35 37 36 37 35 33 36 36 36 36 35 34 33 32 31 31 29 31 31
8 8 11 1 6 9 8 6 5 12 22 25 27 28 28 29 28 28 28 28 30 27 22 20 20 19 13 17 17 26 32 37 40 40 39 36 34 35 34 37 38 38 38 36 34 33 34 33 32
11 12 7 6 3 6 3 6 4 9 9 16 18 22 24 26 27 28 31 31 30 29 26 22 22 21 21 17 17 19 28 33 36 39 42 41 38 35 35 34 36 38 39 41 38 36 37 38 36
4 7 3 7 6 8 6 4 4 2 8 8 9 13 18 22 23 22 25 31 31 31 29 27 23 21 22 21 20 16 21 29 19 24 30 39 44 42 40 38 36 37 36 38 40 39 39 41 42
5 3 6 7 3 4 3 2 4 4 5 5 8 10 15 21 19 17 16 21 27 30 30 28 26 23 21 20 20 22 16 13 19 16 21 29 31 39 42 44 44 40 38 38 38 37 40 42 47
4 2 4 4 5 5 2 3 4 4 5 5 10 10 10 14 19 19 17 17 18 21 27 29 29 29 26 23 20 19 16 15 15 15 21 14 11 24 34 40 40 41 43 45 45 40 40 43 46
5 5 7 5 3 2 2 4 4 3 4 5 8 7 5 7 15 20 22 24 25 25 23 28 30 30 30 28 25 23 21 19 18 15 12 14 8 17 3 18 24 28 27 45 38 42 44 49 48
7 5 3 3 3 4 0 3 6 5 6 8 9 7 3 2 7 12 16 21 23 26 29 30 33 32 30 31 29 26 25 24 21 20 20 17 16 22 22 14 7 7 6 9 18 23 33 33 36
3 5 4 5 3 2 4 4 5 6 8 9 9 8 7 5 7 7 10 14 17 21 24 28 31 33 29 29 30 27 25 25 24 23 22 22 19 15 18 21 21 13 21 25 30 28 22 20 11
3 1 2 5 3 3 2 5 6 6 7 9 12 10 10 7 6 8 8 10 13 15 19 24 27 29 27 27 27 29 28 25 23 21 21 22 21 21 16 17 15 22 20 18 20 30 28 36 46
3 4 3 3 4 3 3 5 4 5 6 6 9 12 8 6 8 5 7 7 10 12 14 20 22 25 22 24 25 26 27 27 24 22 21 20 19 17 20 21 19 19 17 13 15 18 23 24 30
2 1 4 3 3 4 2 5 6 9 8 8 14 11 9 6 5 5 4 5 8 12 14 15 20 27 22 23 23 26 28 26 24 24 24 24 21 20 18 17 16 13 13 14 13 12 16 15 18
5 6 5 4 5 1 4 5 4 8 15 16 14 9 7 3 3 2 2 2 6 10 11 14 20 25 26 21 21 25 26 24 25 26 26 25 23 21 20 19 19 18 18 17 17 17 14 12 13
Wind_Direction
328 322 326 336 49 66 244 264 261 304 63 90 123 66 179 341 303 161 146 159 168 162 160 156 152 155 154 150 148 146 144 143 141 142 142 141 139 138 140 143 140 138 140 138 135 134 133 129 129
337 337 346 66 76 73 270 276 337 316 133 95 90 61 35 40 41 119 149 157 169 164 161 158 154 155 153 151 148 146 144 144 145 146 145 144 142 142 145 148 143 140 138 137 137 138 138 135 135
339 349 21 82 90 164 263 71 301 332 243 53 114 53 32 349 34 136 160 157 168 166 162 160 157 156 155 152 150 149 148 149 150 150 150 149 148 146 148 149 149 146 143 142 144 144 144 143 143
344 59 57 77 245 262 292 325 293 323 62 89 104 53 56 27 325 241 159 161 168 169 165 162 162 159 158 157 153 153 152 153 154 155 156 155 152 147 147 147 151 151 150 150 150 151 151 150 147
32 68 57 71 290 304 1 351 33 323 54 41 40 79 45 37 68 100 149 161 174 171 167 166 168 166 164 162 160 158 157 157 158 159 161 161 158 152 153 151 152 155 155 157 158 158 158 156 154
94 80 67 53 307 32 341 3 41 29 38 29 45 73 43 64 88 108 135 145 175 173 171 172 174 175 173 172 169 167 164 163 163 164 166 168 166 162 159 159 158 160 161 163 166 167 166 164 162
110 85 174 142 310 37 336 1 19 45 44 10 54 62 42 123 109 109 121 155 176 179 179 179 181 186 184 183 181 180 175 173 172 171 172 173 174 172 169 168 167 168 169 171 174 176 176 174 172
103 91 134 217 118 39 338 23 54 47 46 53 49 14 11 41 138 94 99 115 157 178 189 194 193 197 197 196 192 192 193 188 186 182 181 180 181 182 182 180 179 178 179 179 180 183 184 184 184
114 71 149 152 105 131 16 40 40 51 52 51 56 50 47 51 154 143 124 140 149 169 191 209 211 211 209 209 205 202 200 203 202 198 194 193 192 192 193 191 191 191 190 189 188 189 192 193 194
97 107 129 175 124 120 65 50 23 59 37 23 38 51 70 76 78 70 46 3 214 211 211 212 220 223 222 219 217 214 209 209 211 211 210 206 206 205 204 203 202 201 200 199 198 198 198 200 201
114 130 157 76 131 109 99 60 50 61 42 39 40 44 53 63 63 64 54 52 29 271 258 225 232 230 229 227 225 222 220 217 217 219 220 218 216 215 214 213 211 210 209 209 207 206 205 204 205
86 115 119 150 98 87 73 78 58 55 55 58 57 55 50 48 49 45 39 38 37 48 253 256 245 236 240 233 231 230 228 224 223 223 223 225 225 224 224 223 222 221 219 218 218 217 213 210 208
108 112 106 103 96 86 81 70 81 40 33 49 54 46 45 42 39 37 35 34 32 30 11 268 246 249 242 243 237 233 232 231 231 229 229 230 231 233 232 230 230 229 228 227 226 224 221 218 213
136 123 122 105 93 86 78 46 58 9 30 48 50 42 38 36 30 25 19 19 19 8 5 356 248 246 254 253 248 239 237 236 234 234 234 235 236 237 238 238 236 234 233 233 234 233 231 228 223
120 105 73 67 161 62 169 33 19 8 26 47 45 40 32 28 23 28 22 18 15 9 353 349 336 254 239 250 256 252 242 240 238 238 237 238 238 239 240 242 242 241 239 237 237 237 237 236 232
91 55 100 29 355 19 103 55 4 13 28 39 38 38 35 28 19 19 18 17 18 12 1 342 338 318 260 251 254 258 251 244 243 242 240 240 241 240 243 244 243 243 242 241 241 240 241 241 239
19 134 111 41 5 101 65 119 15 29 37 39 37 37 34 29 26 17 14 14 13 13 10 3 336 323 306 261 252 254 256 252 249 247 246 243 242 243 242 245 247 246 244 243 243 242 243 245 245
161 118 57 90 354 74 79 96 32 33 46 41 38 35 35 33 27 18 12 11 13 14 11 7 2 331 314 294 257 252 254 256 254 252 251 251 245 243 244 246 248 248 247 246 246 247 247 248 248
103 95 101 80 163 72 83 89 33 33 44 41 37 34 32 31 31 26 16 8 6 9 10 11 3 3 336 313 284 266 255 256 258 256 257 254 251 246 246 247 250 248 247 248 249 251 253 253 252
102 108 99 45 97 81 145 81 66 44 51 50 39 30 27 24 23 25 24 19 15 11 10 9 8 4 3 349 333 281 269 261 264 265 262 260 255 252 249 249 251 251 250 248 249 251 255 258 255
54 125 136 136 110 46 124 25 359 30 46 30 24 21 19 8 4 12 21 27 24 22 18 14 15 10 7 0 348 322 264 259 254 258 267 269 261 258 254 253 253 256 254 255 254 254 255 260 263
80 126 107 111 123 155 182 276 299 330 317 358 357 5 6 4 10 10 17 26 28 28 27 25 22 19 18 11 9 355 341 292 270 264 260 255 256 255 254 254 254 256 259 258 260 261 261 260 261
162 130 101 104 88 92 175 104 258 344 331 333 351 341 355 27 32 32 33 33 26 20 22 24 27 27 27 31 33 29 4 342 314 287 272 249 224 236 244 246 249 252 258 259 257 262 264 263 263
114 70 40 53 79 39 217 132 270 213 216 298 323 327 312 21 41 46 54 49 41 33 27 21 17 23 25 28 32 41 39 18 359 332 325 304 303 345 239 234 244 242 255 251 254 255 264 266 266
70 78 35 15 13 217 160 48 230 220 226 237 286 319 307 350 18 27 34 38 38 37 37 32 25 16 16 20 24 28 36 37 34 25 14 352 332 302 18 2 295 269 307 274 252 267 256 260 261
99 147 155 184 186 219 18 238 256 204 218 241 260 283 300 310 332 350 15 30 32 32 30 26 26 19 14 9 14 19 24 33 37 33 29 21 11 13 5 8 6 329 287 294 282 283 286 289 295
160 67 171 103 25 77 262 296 304 208 238 256 264 276 281 284 314 333 328 3 21 24 26 22 19 17 10 10 12 14 18 20 28 36 31 26 19 12 2 2 1 3 351 350 314 299 271 266 274
130 139 66 5 130 226 263 274 230 216 235 248 261 257 263 292 308 321 342 340 15 12 10 16 19 12 6 6 9 11 13 16 17 21 29 26 23 17 13 14 356 344 348 338 344 346 316 290 271
128 111 57 107 126 157 183 260 209 188 197 212 239 247 262 293 310 311 306 338 356 5 6 9 9 3 2 360 2 3 4 8 12 15 17 20 18 12 10 12 13 9 9 8 8 349 333 320 296
165 163 141 125 245 102 139 272 214 185 197 208 227 251 275 244 207 247 321 325 344 3 6 5 358 357 359 357 355 355 357 4 9 11 14 13 12 12 12 4 355 352 348 349 351 350 342 337 335